Location: Courçay
(47.2523°N, 0.8761°E)
Time: 23:47:24
(UTC+00:00)

ATLAS 2AS CENTAUR R/B - Pass Details

Date: 18 November 2025
Orbit: 1047 x 1164 km, 63.7° (Epoch: 05 December)

Event Time Altitude Azimuth Distance (km) Brightness Sun altitude
Rises 19:21:13 0° 320° (NW) 3,845 6.2 -30.9°
Reaches altitude 10° 19:23:53 10° 321° (NW) 2,879 5.4 -31.3°
Enters shadow 19:29:41 66° 340° (NNW) 1,136 2.8 -32.3°
